Miscellaneous Local Product
Issued by NWS North Platte, NE

Home | Current Version | Previous Version | Text Only | Print | Product List | Glossary On
Versions: 1 2 3 4 5 6 7 8 9 10 11 12 13 14 15 16 17 18 19 20 21 22 23 24 25 26 27 28 29 30 31 32 33 34 35 36 37 38 39 40 41 42 43 44 45 46 47 48 49 50
000
AXUS43 KLBF 041110
MISLBF


WESTERN AND NORTH CENTRAL NEBRASKA HOURLY WEATHER ROUNDUP
NATIONAL WEATHER SERVICE NORTH PLATTE NE
600 AM CDT WED MAY 04 2016

NOTE: "FAIR" INDICATES FEW OR NO CLOUDS BELOW 12,000 FEET WITH NO
SIGNIFICANT WEATHER AND/OR OBSTRUCTIONS TO VISIBILITY.

NOTE: STATIONS NOT REPORTING VARIABLES SUCH AS SKY/WEATHER OR
PRESSURE ARE PROVIDED BY RAWS AND APRS NETWORKS AND ARE NOT UNDER
NATIONAL WEATHER SERVICE QUALITY CONTROL.

...OBSERVATIONS IN AND NEAR THE EASTERN PANHANDLE OF NEBRASKA...

CITY           SKY/WX    TMP DP  RH WIND       PRES   REMARKS
PINE RIDGE     CLEAR     34  32  92 CALM      30.15R
CHADRON        CLEAR     40  36  86 SW6       30.15S
ALLIANCE       CLEAR     36  34  92 W7        30.15S WCI  30
SIDNEY         CLEAR     37  34  89 NW9       30.19R WCI  30
CRESCENT LAKE    N/A     46  39  77 NW9         N/A
BIG SPRINGS      N/A     43  40  88 W8          N/A
$$

...OBSERVATIONS IN NORTHERN NEBRASKA AND FAR SOUTHERN SOUTH DAKOTA...

CITY           SKY/WX    TMP DP  RH WIND       PRES   REMARKS
WINNER         FAIR      40  35  83 W7        30.11R
VALENTINE      CLEAR     40  35  83 NW3       30.12R
THEDFORD       CLEAR     42  39  88 W5        30.13R
AINSWORTH      CLEAR     43  37  79 NW5       30.10S
O`NEILL        CLEAR     44  34  68 NW8       30.07S
ORD            CLEAR     42  39  89 NW8       30.06R
BROKEN BOW     CLEAR     44  39  82 N9        30.08R
VALENTINE NWR    N/A     44  40  85 CALM        N/A
BUTTE            N/A     43  33  68 NW5         N/A
HALSEY           N/A     46  40  79 W3          N/A
CHAMBERS         N/A     42  33  71 CALM        N/A
EWING            N/A     44  35  72 NW3         N/A
$$

...OBSERVATIONS IN SOUTHWEST NEBRASKA AND FAR NORTHEAST COLORADO...

CITY           SKY/WX    TMP DP  RH WIND       PRES   REMARKS
HOLYOKE        FAIR      45  36  70 W12       30.16S
IMPERIAL       CLEAR     46  38  73 W9        30.13S
OGALLALA       CLEAR     41  38  88 W8        30.14R
NORTH PLATTE   CLEAR     40  37  89 W5        30.11S
MCCOOK         CLEAR     42  37  82 NW7       30.10R
LEXINGTON      CLEAR     43  39  87 W9        30.08R
PAXTON           N/A     44  40  86 W3          N/A
STAPLETON        N/A     45  39  80 CALM        N/A
GOTHENBURG       N/A     45  37  73 W8          N/A
CALLAWAY         N/A     47  40  77 N8          N/A
$$

...OBSERVATIONS IN CENTRAL LINCOLN COUNTY AREA...

CITY           SKY/WX    TMP DP  RH WIND       PRES   REMARKS
N.P. AIRPORT   CLEAR     40  37  89 W5        30.11S
N.P. DOWNTOWN    N/A     44  40  85 CALM        N/A
N.P. SOUTHEAST   N/A     44  38  80 CALM        N/A
N.P. HILLCREST   N/A     46  40  79 N3          N/A
$$

...SOME OBSERVATIONS FROM AROUND THE REGION...

CITY           SKY/WX    TMP DP  RH WIND       PRES   REMARKS
DENVER         CLEAR     44  28  53 SW14      30.24F
LARAMIE        CLOUDY    30  29  96 SE8       30.30F WCI  22
CHEYENNE       CLEAR     40  32  73 W12       30.25F WCI  33
SCOTTSBLUFF    CLEAR     43  38  82 NW10      30.18S
RAPID CITY     CLEAR     48  36  63 NW10      30.13S
BISMARCK       CLEAR     36  32  85 CALM      30.11S
PIERRE         CLEAR     38  31  76 NW6       30.10S WCI  33
SIOUX FALLS    CLEAR     43  33  68 N9        30.02R
OMAHA          CLEAR     48  37  65 N9        29.94R
GRAND ISLAND   CLEAR     48  39  71 N12       30.04R
KANSAS CITY    CLEAR     53  43  68 NW9       29.86R
WICHITA        CLEAR     54  45  71 W10       29.98F
OKLAHOMA CITY  CLEAR     49  46  90 NW7       30.03S
DALLAS         CLEAR     59  53  80 W7        30.05S
AMARILLO       CLEAR     44  36  73 W7        30.20S
DODGE CITY     CLEAR     45  39  79 W9        30.09S
HAYS           CLEAR     45  36  70 W8        30.03S
GOODLAND       CLEAR     43  34  70 W9        30.15S
$$




USA.gov is the U.S. government's official web portal to all federal, state and local government web resources and services.